カタログに戻る

STARLINK-34626

運用中通信VLEO
NORAD 65082·PAYLOAD·🇺🇸 United States

打ち上げ Aug 4, 2025 から Cape Canaveral Space Force Station

Loading…

次のパス (今後24時間)

TLE

最新Source: CelesTrak SupGP

元期: Sep 15, 2026, 03:41 UTC

1 65082C 25167E   26258.15395833 -.00050573  00000+0 -14944-2 0  2585
2 65082  53.1573 219.0110 0001478  86.6073 355.4994 15.34411645    15

AllMySatでSTARLINK-34626をリアルタイム追跡

Download on the App Store